Weather History for Hutchinson, MN

Change the Weather History Date:

Wednesday, September 18, 2013

  Actual Average Record
Temperature  
Mean Temperature 70 °F -  
Max Temperature 82 °F 73 °F 89 °F (1974)
Min Temperature 59 °F 49 °F 33 °F (1973)
Cooling Degree Days 6    
Growing Degree Days 20 (Base 50)    
Moisture  
Dew Point 67 °F    
Average Humidity 91    
Maximum Humidity 100    
Minimum Humidity 69    
Precipitation  
Precipitation 0.02 in - - ()
Sea Level Pressure  
Sea Level Pressure 29.77 in    
Wind  
Wind Speed 6 mph (SE)    
Max Wind Speed 12 mph    
Max Gust Speed 18 mph    
Visibility 5 miles    
Events Rain    
Averages and records for this station are not official NWS values.
T = Trace of Precipitation, MM = Missing Value Source: NWS Daily Summary

Daily Weather History Graph

Daily Weather History Graph

Search for Another Location

Airport:

Trip Planner

Search our weather history database for the weather conditions in past years. The results will help you decide how hot, cold, wet, or windy it might be!

Date:

Astronomy

Sep. 18, 2013 Rise Set
Actual Time 7:00 AM CDT 7:22 PM CDT
Civil Twilight 6:30 AM CDT 7:51 PM CDT
Nautical Twilight 5:56 AM CDT 8:25 PM CDT
Astronomical Twilight 5:20 AM CDT 9:01 PM CDT
Moon 6:44 PM CDT (9/18) 6:02 AM CDT (9/18)
Length of Visible Light 13h 20m
Length of Day
12h 21m
Waxing Gibbous, 99% of the Moon is Illuminated
Sep 18
Waxing Gibbous
Sep 19
Full
Sep 26
Last Quarter
Oct 4
New
Oct 11
First Quarter

Hourly Weather History & Observations

Time (CDT) Temp. Heat Index Dew Point Humidity Pressure Visibility Wind Dir Wind Speed Gust Speed Precip Events Conditions
12:13 AM 59.5 °F - 59.4 °F 99% 29.93 in 2.0 mi SE 4.6 mph - N/A   Overcast
12:34 AM 59.9 °F - 59.5 °F 99% 29.92 in 2.0 mi SSE 5.8 mph - N/A   Drizzle
12:53 AM 59.9 °F - 59.5 °F 99% 29.91 in 2.0 mi SE 4.6 mph - N/A   Drizzle
1:13 AM 60.1 °F - 59.9 °F 99% 29.90 in 3.0 mi SE 6.9 mph - N/A   Drizzle
1:34 AM 60.3 °F - 59.9 °F 99% 29.90 in 4.0 mi SE 6.9 mph - N/A   Overcast
1:53 AM 60.4 °F - 60.1 °F 99% 29.89 in 4.0 mi SSE 4.6 mph - N/A   Overcast
2:13 AM 60.8 °F - 60.3 °F 98% 29.89 in 3.0 mi SSE 4.6 mph - N/A   Overcast
2:34 AM 60.8 °F - 60.8 °F 100% 29.88 in 3.0 mi SE 5.8 mph - N/A   Overcast
2:53 AM 61.0 °F - 60.8 °F 99% 29.87 in 1.8 mi SE 6.9 mph - N/A   Overcast
3:14 AM 61.2 °F - 61.0 °F 99% 29.86 in 1.0 mi SE 4.6 mph - N/A   Overcast
3:33 AM 61.2 °F - 61.2 °F 100% 29.86 in 0.8 mi SE 5.8 mph - N/A   Overcast
3:52 AM 61.3 °F - 61.3 °F 100% 29.85 in 0.8 mi SSE 4.6 mph - N/A   Overcast
4:13 AM 61.7 °F - 61.7 °F 100% 29.84 in 1.2 mi SE 5.8 mph - N/A Rain Light Rain
4:34 AM 61.9 °F - 61.9 °F 100% 29.84 in 0.8 mi SE 3.5 mph - 0.01 in   Overcast
4:54 AM 62.1 °F - 62.1 °F 100% 29.83 in 0.8 mi SE 4.6 mph - 0.01 in   Light Drizzle
5:13 AM 62.2 °F - 62.2 °F 100% 29.82 in 0.8 mi SE 4.6 mph - N/A Rain Light Rain
5:34 AM 62.6 °F - 62.8 °F 100% 29.82 in 0.8 mi SE 4.6 mph - N/A   Drizzle
5:54 AM - - - N/A% 29.82 in 1.2 mi SE 6.9 mph - N/A   Drizzle
6:14 AM 63.7 °F - 63.9 °F 100% 29.82 in 1.2 mi SE 5.8 mph - N/A   Drizzle
6:33 AM 64.4 °F - 64.4 °F 100% 29.81 in 1.2 mi SE 4.6 mph - N/A   Drizzle
6:53 AM 64.8 °F - 64.8 °F 100% 29.81 in 1.5 mi SE 4.6 mph - N/A   Light Drizzle
7:14 AM 65.3 °F - 65.3 °F 100% 29.81 in 1.5 mi SE 5.8 mph - N/A   Light Drizzle
7:34 AM 65.5 °F - 65.5 °F 100% 29.81 in 1.0 mi SSE 6.9 mph - N/A   Light Drizzle
7:53 AM 65.7 °F - 65.7 °F 100% 29.81 in 1.0 mi South 8.1 mph - N/A   Overcast
8:14 AM 66.2 °F - 66.2 °F 100% 29.81 in 1.0 mi South 8.1 mph - N/A Rain Rain
8:34 AM 66.2 °F - 66.2 °F 100% 29.81 in 1.2 mi South 9.2 mph 16.1 mph N/A   Light Drizzle
8:53 AM 66.6 °F - 66.4 °F 99% 29.81 in 1.8 mi South 9.2 mph - N/A   Overcast
9:14 AM 66.9 °F - 66.4 °F 98% 29.82 in 2.0 mi SSE 8.1 mph - N/A   Overcast
9:34 AM 67.1 °F - 66.6 °F 98% 29.82 in 2.5 mi South 6.9 mph - N/A   Overcast
9:53 AM 67.5 °F - 66.6 °F 97% 29.82 in 2.5 mi SSE 5.8 mph - N/A   Overcast
10:14 AM 68.0 °F - 66.7 °F 96% 29.82 in 3.0 mi South 5.8 mph - N/A   Overcast
10:34 AM 68.5 °F - 67.1 °F 95% 29.81 in 4.0 mi SSE 5.8 mph - N/A   Overcast
10:54 AM 69.3 °F - 67.1 °F 93% 29.80 in 4.0 mi South 5.8 mph - N/A   Overcast
11:13 AM 70.2 °F - 67.5 °F 91% 29.79 in 4.0 mi SSE 10.4 mph - N/A   Overcast
11:33 AM 70.3 °F - 67.5 °F 91% 29.78 in 5.0 mi SSE 8.1 mph - 0.01 in   Overcast
11:54 AM 71.1 °F - 67.8 °F 89% 29.78 in 5.0 mi SSE 8.1 mph - 0.01 in   Overcast
12:14 PM 71.6 °F - 67.8 °F 88% 29.77 in 5.0 mi South 11.5 mph 16.1 mph N/A   Overcast
12:33 PM 71.6 °F - 67.8 °F 88% 29.77 in 5.0 mi SSE 6.9 mph - N/A   Overcast
12:54 PM 72.1 °F - 68.0 °F 87% 29.76 in 7.0 mi SSE 6.9 mph - N/A   Overcast
1:13 PM 72.1 °F - 67.8 °F 86% 29.76 in 7.0 mi SSE 5.8 mph 16.1 mph N/A   Overcast
1:33 PM 72.0 °F - 67.8 °F 87% 29.76 in 7.0 mi SE 5.8 mph - N/A   Overcast
1:53 PM 72.1 °F - 68.0 °F 87% 29.75 in 7.0 mi SSE 5.8 mph - N/A   Overcast
2:13 PM 72.7 °F - 67.8 °F 85% 29.75 in 7.0 mi SSE 10.4 mph - N/A   Overcast
2:33 PM 73.0 °F - 68.2 °F 85% 29.74 in 7.0 mi SSE 5.8 mph - N/A   Overcast
2:54 PM 73.6 °F - 68.4 °F 84% 29.74 in 7.0 mi SE 10.4 mph - N/A   Overcast
3:14 PM 75.0 °F - 68.9 °F 81% 29.73 in 10.0 mi SE 11.5 mph 17.3 mph N/A   Overcast
3:32 PM 75.7 °F - 69.1 °F 80% 29.72 in 10.0 mi SE 11.5 mph - N/A   Overcast
3:54 PM 77.9 °F - 69.4 °F 75% 29.72 in 10.0 mi SSE 9.2 mph 18.4 mph N/A   Mostly Cloudy
4:13 PM 78.6 °F - 70.0 °F 75% 29.72 in 10.0 mi SSE 6.9 mph - N/A   Scattered Clouds
4:32 PM 80.1 °F 83.3 °F 70.2 °F 72% 29.71 in 10.0 mi SE 9.2 mph 17.3 mph N/A   Scattered Clouds
4:54 PM 81.1 °F 85.0 °F 70.9 °F 71% 29.70 in 10.0 mi SSE 6.9 mph - N/A   Clear
5:14 PM 81.9 °F 86.0 °F 70.9 °F 69% 29.70 in 10.0 mi SSE 6.9 mph 16.1 mph N/A   Clear
5:33 PM 82.0 °F 86.3 °F 71.1 °F 69% 29.69 in 10.0 mi SSE 8.1 mph - N/A   Clear
5:53 PM 81.9 °F 86.4 °F 71.6 °F 71% 29.69 in 10.0 mi SSE 6.9 mph - N/A   Clear
6:14 PM 80.8 °F 84.9 °F 71.8 °F 74% 29.69 in 10.0 mi SE 6.9 mph - N/A   Clear
6:33 PM 80.6 °F 84.9 °F 72.5 °F 76% 29.68 in 10.0 mi SE 5.8 mph - N/A   Clear
6:53 PM 79.3 °F - 72.5 °F 79% 29.68 in 10.0 mi SE 4.6 mph - N/A   Clear
7:13 PM 77.9 °F - 72.3 °F 83% 29.69 in 10.0 mi SE 5.8 mph - N/A   Clear
7:34 PM 75.2 °F - 71.6 °F 89% 29.68 in 10.0 mi SE 4.6 mph - N/A   Clear
7:54 PM 74.3 °F - 71.6 °F 91% 29.68 in 10.0 mi ESE 6.9 mph - N/A   Clear
8:13 PM 74.3 °F - 72.0 °F 92% 29.69 in 10.0 mi ESE 6.9 mph - N/A   Clear
8:34 PM 74.1 °F - 72.0 °F 93% 29.69 in 7.0 mi ESE 8.1 mph - N/A   Clear
8:53 PM 73.9 °F - 72.0 °F 93% 29.70 in 7.0 mi SE 4.6 mph - N/A   Clear
9:13 PM 74.1 °F - 72.0 °F 93% 29.70 in 7.0 mi SE 5.8 mph - N/A   Clear
9:33 PM 74.1 °F - 71.8 °F 92% 29.71 in 7.0 mi SSE 3.5 mph - N/A   Clear
9:53 PM 74.3 °F - 71.8 °F 92% 29.70 in 7.0 mi SE 5.8 mph - N/A   Clear
10:13 PM 73.0 °F - 71.6 °F 95% 29.69 in 7.0 mi SE 5.8 mph - N/A   Clear
10:34 PM 73.2 °F - 71.2 °F 93% 29.69 in 7.0 mi SE 5.8 mph - N/A   Clear
10:53 PM 73.6 °F - 71.1 °F 92% 29.69 in 10.0 mi SE 4.6 mph - N/A   Clear
11:13 PM 74.3 °F - 70.7 °F 88% 29.69 in 10.0 mi SE 5.8 mph - N/A   Clear
11:34 PM 73.6 °F - 70.3 °F 90% 29.70 in 10.0 mi SE 4.6 mph - N/A   Clear
11:53 PM 73.2 °F - 70.2 °F 90% 29.69 in 10.0 mi SE 3.5 mph - N/A   Mostly Cloudy